Zurück zum Katalog

COSMOS 1754

AktivNavigationLEO
NORAD 16764·PAYLOAD·🇷🇺 Russia

Gestartet Jun 6, 1986 von Plesetsk Cosmodrome

Loading…

Nächste Überflüge (nächste 24 Stunden)

TLE

AktuellSource: Space-Track

Epoche: Sep 14, 2026, 08:28 UTC

1 16764U 86042G   26257.35340211 -.00000008  00000-0  54711-4 0  9996
2 16764  74.0154 108.3090 0020786 237.9877 295.5520 12.52612469666255

Verfolge COSMOS 1754 in Echtzeit mit AllMySat

Download on the App Store